Wind_Speed
59 59 61 61 61 57 55 57 54 47 49 51 50 46 43 39 36 36 34 32 30 29 27 25 24 22 22 19 18 18 18 18 16 12 11 10 12 14 14 15 17 19 21 23 26 26 24 24 26
62 60 59 60 57 54 58 64 57 51 49 52 53 47 48 44 41 38 36 33 33 30 28 27 25 23 22 21 18 17 18 16 15 14 13 11 13 12 12 12 15 16 19 22 25 27 28 26 24
71 64 65 58 53 48 55 70 63 55 50 51 54 51 48 47 42 40 38 34 34 31 29 28 26 24 22 21 19 17 18 16 16 15 13 12 12 10 10 11 12 16 18 21 23 23 25 27 27
70 71 68 61 47 50 58 75 68 59 56 55 55 51 49 47 45 40 40 36 35 32 31 29 27 25 23 22 19 18 18 18 18 16 13 12 11 9 13 14 17 18 19 21 22 23 24 25 27
67 67 67 65 56 53 62 72 68 61 60 58 58 52 50 48 47 43 42 39 36 35 33 31 29 27 25 24 20 18 19 20 21 19 15 14 13 15 16 17 19 20 22 24 25 25 27 28 29
70 64 63 51 49 56 64 72 69 64 63 63 60 55 51 51 49 47 42 40 39 36 36 34 31 29 28 25 22 20 21 22 22 20 18 18 17 18 19 20 21 20 21 25 26 28 29 31 33
68 66 54 54 62 61 68 68 67 67 65 66 62 57 55 52 53 49 44 42 41 36 38 37 34 31 29 27 24 22 22 24 23 22 21 21 21 21 20 22 23 23 23 26 27 28 30 33 35
69 66 56 59 59 60 61 67 68 67 66 69 64 57 53 56 56 51 46 45 44 40 40 39 36 34 31 29 27 25 24 26 27 26 23 23 23 22 23 24 25 25 25 27 27 28 31 33 35
66 63 55 57 62 61 65 67 67 66 67 70 66 62 60 57 55 53 50 47 44 43 42 41 38 35 33 31 30 28 26 27 29 28 27 26 26 25 24 25 25 26 26 29 30 32 34 35 37
67 59 58 60 66 64 68 68 70 68 70 72 72 66 65 59 57 55 53 50 48 46 44 43 41 37 35 34 32 30 28 29 31 31 29 29 27 27 27 26 26 27 28 30 32 32 35 36 38
66 54 61 62 62 61 67 67 70 74 74 75 75 69 67 63 58 57 54 51 49 48 47 44 42 39 36 35 34 32 31 30 31 32 31 31 29 29 29 27 27 29 29 30 29 31 34 34 39
65 59 57 62 65 63 67 69 73 75 73 73 76 74 68 63 59 59 57 53 51 48 46 46 44 41 39 37 36 34 33 32 32 33 32 31 30 29 28 29 29 29 28 27 29 32 34 36 38
65 60 57 65 64 63 73 71 75 78 73 73 79 78 70 67 63 60 59 55 53 50 46 45 44 43 41 40 38 36 34 34 32 33 33 32 30 29 30 31 30 31 30 30 31 33 36 37 40
64 60 58 60 60 60 69 76 79 84 84 72 81 81 76 72 69 65 61 59 57 51 47 45 44 44 43 40 40 39 36 37 34 33 34 33 30 30 31 31 31 30 30 30 32 35 37 39 43
65 61 58 58 59 59 74 86 75 81 84 74 80 84 80 76 71 68 65 61 57 54 50 47 44 45 41 40 41 41 39 38 36 35 34 33 31 31 31 32 33 33 32 33 35 38 40 42 45
63 61 60 61 63 63 77 75 80 94 97 82 77 86 84 81 77 72 68 64 61 57 55 51 48 46 45 42 41 42 43 41 38 37 36 34 33 32 31 34 35 35 36 37 38 40 42 43 45
62 61 56 57 59 64 75 75 94 103 102 93 79 85 86 83 79 75 70 64 63 61 55 53 51 50 47 45 44 44 45 43 41 39 38 36 34 33 33 35 37 37 38 40 41 43 44 46 46
60 60 54 52 55 65 75 80 105 112 110 102 85 78 87 83 82 80 75 69 65 62 57 51 50 51 48 45 45 45 47 46 43 40 39 37 37 35 34 37 39 40 42 43 44 45 47 49 50
59 58 53 47 50 64 77 85 115 114 110 106 95 84 75 82 86 83 78 73 66 62 56 53 53 51 47 45 43 45 46 48 45 43 41 39 38 38 38 40 42 44 45 46 47 47 51 54 56
54 60 53 44 47 64 86 92 115 114 109 106 97 87 81 82 84 83 79 74 69 65 60 56 56 52 52 47 43 44 47 47 47 46 43 43 42 41 44 45 45 46 48 47 50 52 54 57 59
53 58 54 45 45 64 88 99 123 119 113 104 104 96 89 84 78 80 78 75 72 67 63 58 57 51 50 46 44 45 45 47 47 47 47 46 46 45 46 47 47 49 49 51 55 56 56 57 60
48 61 52 49 45 63 81 96 119 121 111 104 100 97 85 82 72 71 77 77 72 64 69 61 58 54 54 51 50 45 42 47 49 48 50 51 50 50 49 50 49 51 53 55 58 57 58 60 63
49 57 52 49 44 58 77 97 122 118 106 98 96 86 84 79 74 71 71 79 73 71 68 68 59 59 51 54 53 53 51 47 48 47 45 48 52 53 53 51 52 53 56 58 61 61 63 65 67
52 54 55 48 46 54 78 94 122 114 98 93 92 91 87 80 74 69 70 76 72 67 64 65 59 59 57 60 58 60 59 57 55 56 56 56 57 57 56 54 55 56 57 62 63 66 70 72 74
50 55 54 47 41 41 72 95 124 114 105 96 94 92 87 83 79 75 72 75 68 62 59 59 60 60 63 63 61 63 58 62 62 63 61 60 61 60 60 58 59 60 64 66 69 69 71 75 78
53 49 51 47 37 48 70 82 121 112 105 100 94 96 91 87 80 78 72 70 70 70 67 64 68 69 68 67 68 60 56 58 62 67 66 65 67 66 67 65 65 67 69 69 70 73 78 80 84
50 42 52 48 38 44 60 84 122 118 110 102 97 95 83 82 79 80 76 75 75 73 74 73 69 76 78 74 71 68 68 66 64 67 69 69 68 68 70 73 73 75 77 76 78 80 84 87 90
44 48 49 48 40 36 57 92 117 117 112 106 99 87 79 83 83 87 84 81 77 81 79 76 75 76 75 72 70 71 71 71 69 68 70 70 72 71 71 73 76 77 78 79 83 86 90 93 97
48 48 50 48 41 36 59 89 124 123 112 110 98 92 88 87 92 84 84 84 83 83 82 80 78 78 77 75 75 73 69 73 72 71 68 70 73 74 76 78 80 81 82 84 86 90 95 98 102
49 46 44 45 44 36 56 91 126 134 119 105 104 98 92 95 91 82 87 86 88 86 86 84 82 83 83 80 81 75 73 73 74 74 72 74 75 79 80 83 84 85 88 90 92 96 99 102 107
Wind_Direction
255 253 252 251 251 251 249 247 239 233 233 237 241 239 240 242 244 246 252 252 254 260 258 252 260 267 274 271 277 290 298 296 287 279 276 276 292 302 306 314 322 324 320 318 323 323 314 294 280
264 261 255 250 248 247 250 248 242 232 232 235 239 239 244 245 245 245 249 247 251 257 251 251 257 261 268 266 278 293 295 287 273 270 268 281 286 296 313 335 343 336 335 333 328 329 331 329 307
260 259 257 254 249 248 248 247 244 235 228 229 235 237 241 244 243 244 246 245 249 254 245 247 253 257 264 265 277 291 289 274 269 268 268 270 275 293 305 326 335 337 341 340 344 335 330 331 329
256 255 255 254 243 243 244 247 243 234 226 226 231 232 237 241 240 239 242 241 246 247 242 244 250 256 261 263 273 286 281 266 265 265 261 261 273 277 295 308 319 328 334 339 345 347 345 339 336
258 256 254 252 252 238 237 245 244 237 230 226 229 230 233 236 236 234 237 236 241 243 240 243 248 256 258 260 267 278 276 264 263 257 257 261 263 284 294 303 312 323 327 329 335 342 340 343 343
263 259 256 253 222 239 237 241 242 237 231 228 227 227 232 234 236 232 233 235 238 239 238 241 246 253 257 257 263 272 272 262 262 255 258 267 270 283 290 299 307 317 319 322 330 338 341 343 343
265 261 255 234 237 238 239 240 239 237 234 230 225 225 231 234 236 231 228 232 234 236 238 240 245 249 255 255 258 265 266 262 261 256 262 266 273 282 286 300 307 312 319 318 329 334 338 339 341
266 263 256 241 247 244 242 239 237 238 234 231 228 225 231 233 234 232 227 228 232 235 238 240 242 245 252 253 255 260 261 260 263 262 264 269 273 279 288 296 301 308 311 314 323 331 336 338 341
269 262 250 248 239 242 237 236 234 237 234 231 227 224 228 231 233 233 228 228 232 235 238 238 241 243 248 252 254 258 259 260 263 261 265 270 273 279 288 295 300 304 308 313 319 323 329 333 335
268 262 253 244 234 232 231 232 234 233 233 229 226 223 225 228 231 233 229 230 233 236 238 238 240 242 246 252 252 257 260 258 261 263 265 269 274 279 285 293 299 304 306 311 317 322 325 333 335
267 260 248 244 240 234 228 230 230 230 229 225 225 223 223 225 227 232 231 229 233 235 236 236 238 241 246 249 250 254 259 257 259 264 263 269 274 280 285 291 298 305 310 312 316 320 326 331 332
265 262 247 240 239 237 229 230 230 229 230 225 222 222 220 225 228 231 233 230 231 235 237 235 237 241 246 249 250 252 257 260 258 265 266 269 275 278 285 291 296 301 312 318 317 320 327 328 329
264 260 250 238 235 233 227 224 231 229 223 222 220 221 216 221 225 228 231 231 231 234 237 237 237 240 245 248 248 250 255 260 258 260 266 269 274 278 283 289 295 297 303 309 314 319 322 327 331
263 261 254 240 237 236 227 224 227 227 218 220 219 220 216 216 221 224 227 229 231 232 234 237 237 241 245 246 247 249 253 258 259 263 266 269 272 277 283 288 293 295 301 307 312 316 321 327 330
262 258 254 243 237 229 227 226 226 228 224 220 219 219 216 215 220 224 228 230 232 232 233 237 241 242 244 244 247 249 252 258 259 260 265 268 273 277 282 288 290 293 297 302 310 314 320 325 329
261 256 253 244 237 226 225 222 223 223 224 210 216 218 218 215 218 223 226 229 233 232 232 235 242 246 245 244 247 249 251 256 259 260 264 268 271 274 281 286 288 293 297 301 305 310 315 321 327
259 257 252 247 240 232 226 216 213 215 219 209 208 217 217 216 219 222 224 228 234 233 234 236 240 245 247 246 246 247 250 255 258 262 265 268 271 276 281 284 288 293 296 298 304 309 313 317 323
258 260 252 246 243 233 222 211 207 210 214 215 202 214 217 215 219 222 222 223 231 233 236 237 239 243 244 247 247 247 249 253 257 262 266 268 272 275 279 282 287 291 294 298 302 308 310 314 320
259 259 253 247 243 228 218 208 205 207 211 212 202 201 216 217 220 222 222 222 226 232 234 239 239 243 244 248 252 249 251 254 257 260 264 269 273 277 279 282 286 290 294 297 301 305 309 314 317
258 260 256 248 242 223 215 207 206 207 209 208 198 197 207 214 217 220 222 223 223 227 232 238 241 245 248 252 254 254 252 254 257 260 263 268 272 277 280 283 286 289 293 297 300 302 306 310 314
256 260 256 253 245 222 217 206 205 206 205 207 203 200 203 206 215 219 220 221 223 226 231 238 240 238 245 249 249 257 258 255 257 259 262 266 271 275 280 283 287 290 292 296 298 300 304 307 312
254 258 259 255 254 228 218 206 203 205 204 201 198 199 204 205 208 217 221 220 220 226 229 230 237 235 242 245 248 250 257 260 259 259 260 265 269 273 278 284 283 289 293 295 296 300 303 306 309
249 256 258 256 259 231 217 206 201 203 200 199 200 198 202 204 207 213 219 220 222 223 229 230 232 234 240 244 245 245 249 254 258 259 259 263 266 273 277 283 283 285 291 293 295 299 302 304 308
249 254 255 254 260 235 220 205 197 199 195 196 199 201 203 204 207 211 213 219 222 228 228 230 236 237 236 243 246 248 252 254 256 259 260 266 269 274 276 280 284 284 285 289 294 299 301 303 306
244 249 252 252 262 240 219 208 195 198 198 199 201 203 203 204 209 209 213 219 220 216 224 230 232 236 238 243 244 247 254 255 257 258 261 265 269 271 274 278 282 283 286 290 294 298 302 304 305
244 250 253 253 252 231 218 209 195 197 202 200 202 203 202 206 208 211 213 213 215 217 224 224 230 237 239 241 243 241 250 251 258 261 262 266 266 269 272 276 282 286 288 291 294 298 301 304 307
248 250 245 249 246 241 221 204 197 197 201 198 199 201 202 207 209 211 211 210 217 215 221 218 224 232 234 237 242 243 245 249 252 260 262 264 267 271 273 276 282 286 286 290 294 296 299 302 304
244 242 244 248 245 248 217 202 194 198 198 199 197 196 198 209 210 213 210 215 221 218 223 225 227 235 239 241 245 248 253 252 255 263 264 266 269 274 277 281 284 287 290 291 294 296 297 300 303
236 236 240 245 241 242 216 201 195 194 199 197 197 199 200 209 214 213 213 218 223 221 223 226 232 236 241 244 246 250 255 259 260 267 269 271 273 276 280 283 285 289 290 292 295 298 298 299 302
238 236 240 246 241 238 216 200 198 198 200 198 202 203 202 208 210 211 219 220 223 223 227 230 234 239 243 247 249 252 256 258 262 265 270 273 276 279 282 284 286 288 289 291 294 297 297 299 302
Height
10778 10781 10783 10787 10793 10804 10808 10806 10812 10819 10823 10826 10828 10832 10836 10837 10842 10844 10845 10846 10847 10848 10849 10850 10851 10852 10853 10853 10854 10853 10851 10849 10847 10846 10846 10844 10843 10843 10842 10841 10839 10837 10836 10834 10831 10827 10825 10823 10822
10764 10768 10771 10774 10784 10797 10798 10791 10802 10809 10816 10819 10822 10826 10828 10831 10835 10838 10840 10841 10842 10843 10845 10846 10848 10849 10849 10850 10850 10849 10848 10846 10845 10844 10843 10842 10841 10840 10840 10838 10837 10835 10833 10831 10827 10823 10820 10818 10817
10752 10756 10758 10764 10778 10791 10787 10775 10787 10801 10804 10809 10812 10818 10820 10824 10827 10831 10833 10836 10837 10839 10840 10842 10844 10845 10845 10846 10846 10845 10844 10843 10842 10841 10840 10840 10839 10838 10837 10837 10835 10833 10831 10828 10825 10822 10818 10815 10812
10738 10741 10745 10755 10770 10775 10774 10758 10771 10787 10793 10799 10801 10810 10812 10815 10819 10825 10826 10830 10831 10833 10835 10837 10839 10840 10841 10841 10842 10841 10841 10840 10839 10838 10838 10837 10837 10836 10835 10834 10833 10831 10829 10826 10823 10820 10816 10813 10809
10721 10726 10731 10746 10759 10761 10755 10744 10762 10780 10786 10788 10793 10801 10804 10806 10811 10816 10818 10822 10825 10827 10830 10832 10834 10835 10837 10837 10837 10837 10837 10836 10836 10835 10835 10834 10834 10833 10832 10831 10830 10829 10826 10823 10821 10817 10813 10809 10806
10704 10710 10717 10735 10741 10742 10735 10733 10750 10766 10774 10777 10784 10792 10797 10798 10802 10807 10812 10816 10818 10821 10823 10826 10828 10830 10831 10832 10833 10833 10833 10833 10832 10832 10832 10831 10830 10830 10829 10827 10826 10826 10824 10820 10817 10814 10810 10806 10802
10690 10693 10706 10714 10721 10722 10721 10728 10738 10749 10763 10767 10775 10784 10788 10793 10793 10800 10805 10808 10810 10814 10816 10819 10822 10824 10826 10827 10828 10828 10828 10828 10829 10828 10828 10827 10827 10826 10825 10824 10823 10822 10820 10817 10814 10810 10806 10803 10799
10676 10679 10690 10699 10705 10707 10711 10716 10725 10737 10750 10757 10768 10780 10781 10780 10784 10792 10798 10800 10802 10806 10809 10812 10815 10818 10820 10821 10823 10823 10824 10824 10824 10824 10824 10824 10823 10822 10821 10820 10819 10818 10816 10813 10811 10807 10804 10800 10795
10660 10665 10675 10681 10686 10693 10697 10701 10710 10723 10737 10749 10756 10766 10767 10773 10779 10783 10789 10792 10794 10798 10802 10806 10808 10811 10813 10815 10817 10818 10819 10819 10820 10820 10820 10819 10818 10817 10817 10816 10815 10813 10811 10809 10806 10803 10800 10797 10792
10640 10650 10654 10658 10664 10671 10677 10684 10693 10705 10719 10734 10741 10752 10758 10763 10770 10773 10780 10784 10786 10790 10794 10798 10802 10805 10807 10809 10811 10812 10814 10814 10815 10815 10815 10814 10814 10813 10812 10812 10810 10808 10806 10804 10802 10798 10795 10791 10787
10625 10632 10631 10638 10646 10654 10660 10668 10674 10689 10700 10718 10731 10741 10748 10753 10761 10764 10770 10775 10779 10782 10785 10790 10794 10798 10801 10803 10804 10806 10808 10809 10809 10810 10810 10809 10809 10808 10808 10806 10805 10803 10801 10799 10796 10793 10790 10787 10782
10609 10610 10614 10620 10626 10638 10646 10651 10661 10672 10687 10704 10718 10727 10739 10747 10753 10756 10761 10767 10770 10775 10777 10781 10786 10790 10793 10796 10798 10801 10802 10803 10804 10803 10803 10803 10803 10803 10802 10801 10800 10798 10796 10793 10790 10788 10785 10782 10778
10589 10591 10597 10602 10611 10623 10625 10639 10648 10657 10674 10688 10702 10715 10727 10733 10738 10745 10751 10757 10760 10764 10769 10774 10778 10782 10785 10789 10791 10793 10795 10796 10797 10797 10797 10797 10797 10797 10796 10795 10794 10792 10790 10788 10786 10783 10780 10776 10772
10572 10575 10579 10587 10595 10606 10615 10620 10628 10641 10654 10670 10685 10699 10712 10717 10724 10732 10739 10744 10749 10758 10762 10765 10770 10774 10778 10781 10783 10785 10788 10789 10790 10790 10790 10791 10790 10790 10790 10789 10788 10786 10784 10782 10779 10776 10772 10768 10764
10554 10558 10562 10570 10576 10587 10590 10590 10627 10632 10643 10656 10669 10683 10698 10707 10716 10721 10727 10736 10741 10749 10756 10758 10761 10765 10770 10774 10776 10778 10780 10781 10782 10783 10783 10784 10784 10783 10783 10782 10781 10779 10778 10775 10772 10769 10766 10762 10757
10536 10539 10542 10543 10551 10564 10568 10598 10612 10611 10624 10639 10654 10666 10682 10695 10701 10710 10718 10727 10730 10738 10745 10751 10753 10756 10761 10766 10768 10770 10772 10773 10774 10775 10776 10776 10776 10776 10776 10775 10773 10771 10770 10767 10764 10761 10759 10756 10752
10518 10520 10525 10528 10535 10541 10555 10583 10584 10589 10601 10614 10633 10650 10666 10680 10690 10699 10708 10716 10718 10728 10736 10742 10745 10748 10752 10756 10760 10762 10763 10764 10766 10767 10768 10768 10768 10768 10769 10767 10765 10763 10762 10759 10756 10753 10751 10748 10745
10501 10501 10508 10510 10511 10520 10534 10553 10559 10565 10580 10598 10615 10636 10652 10668 10677 10683 10695 10704 10708 10717 10726 10731 10735 10738 10742 10747 10751 10753 10754 10756 10758 10759 10759 10760 10760 10760 10760 10759 10757 10755 10753 10751 10748 10744 10742 10738 10735
10481 10484 10487 10489 10491 10499 10518 10528 10536 10545 10565 10577 10596 10613 10636 10655 10660 10670 10683 10694 10701 10709 10717 10721 10724 10728 10733 10737 10741 10744 10745 10746 10749 10751 10751 10751 10752 10752 10751 10751 10749 10747 10745 10742 10740 10736 10732 10728 10724
10466 10463 10471 10472 10472 10478 10490 10507 10516 10531 10551 10567 10584 10600 10616 10629 10645 10658 10673 10686 10692 10698 10705 10710 10714 10718 10722 10728 10732 10734 10736 10738 10739 10741 10742 10742 10743 10744 10743 10742 10740 10738 10736 10733 10731 10728 10724 10720 10715
10448 10448 10452 10457 10458 10462 10470 10484 10493 10516 10535 10552 10571 10586 10595 10614 10635 10647 10662 10673 10680 10688 10693 10698 10703 10709 10714 10719 10722 10725 10727 10729 10730 10731 10732 10733 10734 10734 10734 10732 10731 10729 10726 10723 10720 10717 10714 10711 10707
10439 10428 10438 10440 10441 10451 10453 10475 10487 10502 10527 10545 10564 10580 10598 10614 10625 10636 10649 10660 10670 10675 10682 10688 10693 10699 10704 10708 10711 10716 10717 10719 10720 10719 10720 10722 10723 10723 10722 10722 10720 10719 10716 10713 10710 10706 10703 10700 10697
10422 10419 10423 10423 10426 10432 10435 10453 10482 10491 10514 10542 10563 10578 10591 10603 10612 10624 10635 10645 10653 10663 10671 10678 10682 10688 10694 10696 10701 10704 10706 10709 10710 10709 10709 10711 10712 10712 10712 10711 10709 10707 10705 10702 10699 10695 10691 10687 10684
10404 10407 10408 10410 10412 10418 10432 10443 10463 10490 10525 10544 10551 10562 10575 10586 10598 10610 10618 10628 10643 10653 10662 10669 10674 10679 10683 10685 10689 10692 10695 10697 10698 10698 10699 10700 10701 10701 10700 10699 10697 10695 10693 10690 10687 10683 10679 10674 10670
10391 10390 10394 10401 10404 10418 10419 10429 10465 10493 10513 10529 10537 10548 10559 10570 10584 10597 10608 10623 10633 10641 10648 10654 10660 10665 10668 10672 10677 10680 10683 10685 10686 10685 10687 10688 10689 10688 10687 10686 10684 10682 10680 10677 10674 10670 10665 10660 10655
10373 10380 10385 10388 10394 10394 10393 10429 10472 10488 10495 10510 10523 10531 10539 10556 10572 10586 10598 10609 10617 10624 10633 10639 10645 10650 10654 10659 10662 10666 10669 10670 10672 10673 10674 10675 10675 10675 10674 10673 10671 10669 10666 10663 10659 10655 10649 10644 10639
10362 10375 10364 10375 10383 10385 10394 10425 10443 10469 10484 10497 10509 10521 10540 10555 10564 10573 10584 10593 10602 10612 10619 10620 10627 10631 10636 10643 10649 10653 10654 10656 10657 10660 10660 10662 10661 10662 10661 10659 10657 10654 10651 10648 10644 10639 10633 10627 10622
10352 10350 10357 10365 10372 10381 10393 10409 10440 10462 10475 10487 10499 10516 10530 10538 10547 10559 10571 10580 10588 10597 10604 10611 10616 10623 10628 10634 10638 10641 10644 10644 10645 10647 10648 10649 10649 10648 10646 10644 10641 10639 10636 10632 10628 10622 10617 10609 10602
10332 10339 10345 10352 10362 10371 10379 10404 10421 10440 10456 10472 10486 10499 10514 10526 10536 10546 10556 10563 10571 10583 10592 10600 10607 10612 10616 10621 10624 10628 10631 10634 10634 10635 10635 10636 10635 10633 10631 10629 10625 10623 10619 10615 10610 10605 10598 10591 10583
10320 10330 10337 10340 10348 10358 10366 10386 10398 10418 10440 10463 10477 10491 10502 10512 10522 10532 10540 10550 10558 10570 10579 10588 10594 10598 10602 10607 10610 10613 10617 10618 10619 10621 10621 10620 10619 10618 10615 10612 10609 10606 10601 10597 10593 10586 10579 10571 10564